Location: ??????
(56.0120°N, 39.1740°E)
Time: 06:32:03
(UTC+00:00)

Gbstr 26 Del rocket - Pass Details

Date: 14 April 2026
Orbit: 490 x 1216 km, 51.8° (Epoch: 10 May)

Event Time Altitude Azimuth Distance (km) Brightness Sun altitude
Exits shadow 23:38:01 42° 168° (SSE) 719 3.1 -18.6°
Drops below altitude 10° 23:41:26 10° 101° (E) 1,683 5.6 -18.3°
Sets 23:43:39 0° 94° (E) 2,582 6.7 -18.2°
